Theta_e
344 345 344 344 343 343 343 343 344 343 344 344 344 345 346 346 346 346 346 346 347 347 346 346 347 347 347 347 345 343 341 341 341 341 341 342 340 333 327 322 318 317 316 316 315 315 315 315 316 316 316 316 316 319 323 324 324 324 324 324 324 325 326
344 345 345 344 343 343 344 343 344 344 344 344 344 345 346 346 346 346 346 346 347 347 347 347 347 347 348 347 343 341 340 341 342 341 342 342 337 330 324 320 317 316 316 315 315 315 315 315 316 316 316 316 316 319 322 324 324 323 323 323 323 324 324
343 344 344 343 343 343 344 344 344 344 344 344 345 345 346 346 345 346 346 346 347 347 347 347 347 348 349 347 342 339 340 340 341 342 342 341 335 328 323 319 317 316 315 315 315 315 315 315 316 316 316 316 317 319 322 323 323 323 323 323 323 323 323
342 342 342 342 343 343 343 344 344 344 344 344 345 345 345 346 345 345 346 346 346 347 347 347 348 348 349 347 342 339 339 340 341 342 342 339 334 330 325 319 317 316 314 315 315 315 315 316 316 317 317 316 317 319 321 322 322 322 321 320 320 320 321
340 340 341 341 343 343 343 344 344 344 344 344 344 345 345 345 345 346 346 346 346 346 347 347 347 348 349 348 343 339 339 340 340 342 342 338 335 333 326 319 317 315 314 315 316 315 316 316 317 317 317 317 318 319 320 322 322 321 320 319 321 322 323
339 339 341 340 341 342 343 344 344 344 344 344 344 344 345 345 345 345 345 345 346 346 346 347 347 348 349 348 344 340 340 340 341 342 341 338 336 332 324 318 317 315 315 316 316 316 316 317 317 317 318 318 318 318 321 322 321 321 322 324 325 326 327
338 339 339 340 340 341 342 343 343 344 344 344 345 344 345 346 346 346 345 344 345 345 346 347 347 348 349 348 345 341 340 341 342 343 342 340 338 330 321 318 317 314 315 316 316 316 317 317 317 318 319 320 319 320 322 324 322 323 325 326 326 327 327
337 339 338 339 340 339 342 342 343 344 345 345 346 345 346 346 346 346 346 345 344 345 346 346 346 346 348 348 345 342 341 341 342 344 344 344 342 332 321 319 317 314 315 316 316 317 317 317 317 318 321 321 321 322 324 324 324 325 327 327 327 328 328
337 338 337 339 339 339 341 341 343 344 344 345 345 345 346 346 345 346 346 345 345 345 345 344 344 345 346 348 347 344 341 341 344 347 346 347 343 331 321 320 317 315 315 316 316 317 317 318 318 319 321 321 322 324 324 325 325 326 327 327 328 328 328
335 337 337 339 339 340 341 342 343 343 344 344 345 345 346 346 346 346 345 346 345 345 345 344 345 344 344 348 349 346 346 348 350 350 349 348 339 324 319 320 318 316 316 316 317 317 317 318 317 319 321 322 323 324 324 325 325 326 326 327 327 328 328
335 335 336 338 339 339 341 341 342 343 343 344 344 345 346 345 346 346 346 346 345 345 345 345 346 344 343 348 350 351 351 351 351 348 348 348 338 322 319 321 318 317 317 316 317 317 317 318 318 319 321 321 322 323 324 325 325 326 327 327 328 328 328
335 336 336 337 338 339 340 341 342 343 344 344 344 345 345 345 346 346 346 346 346 346 346 346 347 345 345 351 353 353 351 347 344 343 345 347 338 324 320 321 319 319 318 316 317 317 317 318 318 319 320 321 322 323 324 325 326 327 328 328 329 329 329
335 336 336 337 338 339 340 341 342 343 343 344 344 344 345 345 346 346 346 347 347 347 348 348 349 349 351 354 354 352 348 342 340 341 343 345 336 324 321 322 321 321 318 317 319 318 318 318 318 319 320 321 322 323 324 325 326 328 328 328 328 328 328
336 336 336 337 338 338 340 340 341 342 343 343 344 344 345 345 346 346 346 347 348 349 349 349 350 352 353 353 352 350 349 346 342 339 342 345 337 324 322 323 322 321 319 318 320 321 320 319 318 319 321 321 323 323 323 325 326 327 327 327 327 326 326
336 337 336 337 337 338 339 339 341 341 341 342 342 343 344 344 345 346 346 347 348 348 349 350 350 352 352 353 353 352 351 349 346 343 345 346 336 324 321 321 321 321 319 318 322 324 322 320 319 319 321 322 322 323 323 324 324 325 326 326 325 325 324
337 337 337 337 338 338 338 339 340 340 340 341 341 342 343 343 344 344 345 346 347 348 349 349 350 351 352 353 353 352 351 351 350 349 349 347 336 325 322 322 321 321 319 318 323 325 324 322 321 319 321 321 321 322 322 323 322 323 324 324 323 323 323
338 338 337 337 338 338 338 338 339 339 339 340 340 341 341 342 342 343 344 345 346 347 348 348 349 351 352 352 352 352 352 351 350 350 349 347 339 329 324 323 322 321 319 318 322 326 326 324 321 320 321 321 321 321 322 321 321 322 322 323 322 323 323
338 338 338 337 338 338 338 338 339 339 340 340 340 340 340 341 342 342 343 344 345 346 347 348 349 350 351 352 352 352 352 350 350 350 348 348 344 333 325 324 322 320 319 318 321 326 327 324 321 320 321 321 320 321 321 321 321 321 321 322 322 323 323
338 338 338 338 338 338 339 339 339 339 339 338 338 338 338 340 341 341 342 344 344 345 346 348 349 350 351 352 352 352 352 351 350 350 348 348 344 333 325 325 322 320 320 319 321 325 326 325 323 321 321 320 320 320 321 321 321 321 321 322 323 325 325
338 338 338 338 338 339 339 339 339 339 338 337 337 337 338 339 340 341 342 343 344 345 346 347 348 349 350 351 351 352 352 351 350 350 349 349 345 333 326 326 323 320 320 319 320 325 326 324 323 322 322 321 320 320 321 321 322 322 321 322 325 328 329
339 339 339 338 339 339 339 339 339 338 336 336 336 338 339 340 340 341 342 343 344 345 346 347 348 349 349 350 351 351 351 350 350 350 350 349 345 334 327 327 324 321 321 320 320 324 325 324 324 324 324 323 321 320 321 321 321 322 322 322 326 329 331
338 338 338 339 338 339 339 339 339 337 336 338 339 340 341 341 342 343 343 344 345 345 347 347 348 349 349 350 351 351 351 350 350 350 349 348 346 339 331 329 325 322 322 320 320 323 324 324 324 325 325 325 322 320 321 321 321 322 323 324 327 331 332
338 338 339 339 339 339 339 339 340 339 339 340 339 338 339 339 341 342 343 345 346 347 348 348 349 349 350 350 350 350 350 350 349 349 348 348 347 344 339 335 329 324 323 322 321 323 325 325 325 326 327 325 321 321 322 322 322 325 328 328 330 332 332
338 338 339 339 339 340 340 339 339 338 337 336 334 333 334 334 336 338 340 343 345 346 347 348 349 350 350 350 351 350 350 350 349 349 349 348 347 345 343 338 331 325 324 323 323 323 325 326 326 328 328 324 322 325 327 326 327 330 332 331 329 329 330
339 339 340 340 339 339 338 336 336 334 334 334 333 332 332 333 334 335 337 340 342 344 346 347 348 349 350 351 351 350 350 349 349 349 348 347 346 345 343 337 329 326 326 324 323 322 322 325 328 330 329 327 326 329 331 331 333 334 334 332 330 329 330
339 338 338 337 335 335 334 333 333 334 334 334 332 332 331 332 332 333 334 337 340 342 344 346 348 349 350 350 351 350 350 349 349 349 348 347 345 343 342 336 328 326 327 323 322 323 325 330 332 332 332 332 331 331 332 334 336 337 336 334 333 333 333
338 336 334 334 334 334 334 334 334 334 334 335 334 334 333 333 333 333 333 335 337 340 344 347 348 349 350 351 350 350 350 349 349 348 348 347 343 341 341 337 329 326 325 324 324 328 331 333 334 333 334 334 333 333 335 337 338 338 337 336 335 335 334
335 334 333 333 334 334 334 334 335 335 336 337 337 337 335 334 334 334 334 335 338 342 345 347 348 349 349 350 350 350 349 349 348 348 346 345 343 341 340 338 332 327 325 327 329 332 333 333 333 334 334 334 335 337 338 339 338 337 336 335 334 333 333
336 336 336 336 336 336 336 336 336 337 338 338 338 337 335 335 336 336 336 338 342 344 346 347 348 348 348 349 349 349 349 348 348 348 345 344 343 341 338 335 332 328 328 331 332 332 332 333 334 335 336 337 338 339 339 338 337 335 334 332 331 331 332
342 341 341 341 341 341 339 339 339 339 338 337 337 337 336 337 338 337 338 341 343 345 347 348 348 348 347 348 348 348 348 348 348 347 345 344 344 341 337 333 330 330 331 332 332 332 333 334 335 337 338 339 339 339 338 337 335 333 331 330 329 329 331
339 340 340 340 340 340 339 340 339 338 337 338 338 338 338 339 339 339 340 341 342 344 348 349 348 347 347 346 346 346 347 347 347 346 345 344 343 342 338 333 331 332 333 333 333 334 334 335 336 338 339 339 339 338 336 334 332 330 328 328 328 328 328
330 333 335 336 336 337 337 338 338 337 338 338 338 338 339 341 342 341 340 340 340 344 348 349 348 347 346 345 345 345 345 345 346 345 343 342 343 343 339 334 333 333 333 334 336 336 336 337 338 339 339 338 337 335 332 330 328 328 328 327 327 327 326
325 326 328 328 329 331 330 329 329 333 335 336 337 339 341 341 341 339 339 340 343 346 348 347 346 345 344 343 343 343 343 344 344 343 341 341 343 342 339 337 337 336 335 336 337 337 338 338 338 338 338 336 333 330 329 327 327 327 327 326 326 326 326
326 325 325 326 327 328 328 327 329 332 333 334 337 341 341 340 339 338 339 340 343 346 347 345 343 342 342 341 341 341 341 342 342 341 340 340 340 340 339 339 339 338 337 337 337 339 338 335 333 335 336 333 330 328 327 326 326 326 325 325 326 325 324
326 324 324 325 326 326 327 330 333 336 337 339 341 343 342 342 341 341 341 341 341 344 344 343 341 340 339 339 339 339 339 340 339 339 339 338 338 338 338 337 337 337 337 337 337 335 331 326 328 333 333 330 327 326 325 324 324 324 324 325 324 323 322
327 326 326 327 328 329 330 334 337 339 340 342 344 344 343 343 343 343 342 341 342 343 343 342 341 338 336 338 339 338 338 338 337 336 336 336 336 336 336 337 337 335 334 332 330 327 324 324 328 331 330 327 326 324 322 322 323 324 324 324 322 322 322
328 329 330 330 332 335 336 337 339 340 341 342 343 342 341 342 342 341 341 341 342 343 342 341 339 337 336 337 337 336 335 335 334 334 334 336 337 336 336 334 331 328 326 327 327 327 327 328 329 328 326 325 324 322 321 322 323 324 324 323 322 322 322
331 331 332 332 334 336 337 337 338 338 338 339 338 339 339 340 340 341 340 340 342 342 341 339 337 336 335 336 335 335 335 335 336 336 337 336 335 331 328 324 322 322 324 326 327 329 330 329 328 326 324 323 322 322 323 323 324 324 324 323 323 323 322
Wind_Speed
31 35 41 46 50 50 49 49 47 46 45 44 43 43 43 42 41 40 39 38 38 37 36 35 34 33 31 31 30 29 29 29 29 28 26 25 23 21 20 18 16 15 15 15 14 14 13 14 14 13 12 12 11 11 11 11 10 9 9 9 9 9 9
30 33 38 45 50 50 50 50 48 48 47 45 45 44 44 44 42 41 41 40 39 37 36 36 35 34 33 32 31 31 31 31 30 29 27 26 24 22 20 19 17 16 15 15 15 15 15 15 15 14 12 12 12 12 12 12 11 10 10 10 10 11 10
32 35 40 46 49 51 52 51 50 50 49 47 47 46 46 44 42 41 41 41 40 39 38 37 36 35 34 33 33 33 33 32 31 30 29 27 24 22 21 20 18 17 16 16 16 16 16 16 15 13 12 12 12 13 12 12 12 11 11 11 11 11 11
35 39 43 47 50 52 52 52 52 51 50 50 48 46 45 43 41 41 41 40 40 40 39 38 37 37 35 35 35 35 35 34 33 31 29 27 25 23 21 20 19 18 17 17 17 17 17 17 16 14 13 13 13 13 13 12 12 12 12 12 11 11 10
35 39 43 46 49 51 51 52 53 52 51 50 49 48 45 42 42 42 41 40 40 40 40 39 39 38 37 36 36 37 36 34 33 31 29 27 26 24 22 21 20 19 18 18 18 18 18 18 16 14 14 14 13 13 13 12 12 12 11 10 10 9 8
36 40 44 46 48 50 51 52 53 53 52 51 49 48 46 45 44 42 41 40 41 41 41 41 40 39 38 37 38 38 37 35 34 32 30 29 27 24 23 22 21 19 19 18 19 19 19 18 16 15 14 14 13 13 13 13 12 11 10 10 9 8 7
38 42 44 45 46 48 49 50 51 52 52 51 50 48 47 47 46 44 42 41 41 42 42 42 42 40 40 39 39 39 38 37 35 33 31 29 27 24 23 22 21 20 20 19 19 20 20 18 16 15 14 14 13 14 14 13 12 12 11 11 10 9 9
36 40 43 44 45 45 46 48 50 50 50 50 50 50 49 49 47 46 45 42 42 42 42 42 43 42 42 41 41 40 39 38 36 34 32 28 25 23 23 23 21 21 20 20 20 21 20 17 16 15 15 14 14 15 14 13 13 13 12 12 11 11 11
30 36 39 40 42 43 44 46 48 48 49 49 49 49 49 49 48 47 46 43 43 42 42 42 43 43 43 43 42 41 40 38 36 33 30 26 24 22 22 23 22 21 21 20 21 21 19 17 16 15 15 15 16 16 15 14 13 12 12 12 13 14 14
25 31 35 37 40 42 43 44 45 46 47 47 48 48 48 49 49 48 47 46 45 44 43 43 44 44 44 43 43 41 39 37 34 30 27 25 24 24 24 24 24 22 21 21 21 21 19 17 17 16 16 16 17 16 15 14 13 12 12 13 14 16 17
21 26 31 35 38 40 41 43 43 44 45 45 46 47 47 48 49 48 48 47 46 45 44 45 45 45 44 44 43 39 36 35 32 30 29 29 27 26 26 25 24 23 22 21 21 21 19 18 18 18 18 17 17 16 16 15 14 13 13 14 16 17 18
19 23 28 32 36 39 40 41 41 43 44 44 44 45 46 46 47 47 47 47 47 46 46 47 46 46 45 43 40 39 38 38 37 36 34 32 29 26 25 26 25 24 22 21 21 21 21 19 19 19 18 17 17 17 16 15 15 15 15 16 17 18 19
19 22 26 29 34 36 38 39 40 41 42 42 42 42 43 43 44 44 45 46 47 47 48 48 48 48 45 42 42 44 46 45 42 39 37 34 30 27 25 25 25 25 23 21 21 22 21 21 20 20 19 18 19 18 16 15 16 16 16 17 17 18 18
19 22 25 29 33 36 37 39 39 39 39 39 39 39 40 41 41 42 43 44 45 46 47 48 48 47 44 45 47 49 49 47 43 40 38 36 33 31 29 27 28 27 24 23 23 22 21 21 21 21 20 20 20 19 17 16 17 17 18 17 17 18 18
22 24 27 30 33 36 37 38 37 36 35 34 35 36 37 38 39 39 40 42 42 44 45 46 46 45 44 46 48 48 47 46 42 40 37 34 34 36 35 34 33 29 27 27 25 21 20 22 22 22 22 21 21 19 18 18 19 18 18 18 17 18 18
24 26 29 32 34 35 36 36 35 33 31 31 32 32 33 34 34 35 37 38 40 41 42 43 44 43 44 45 45 46 47 43 39 36 34 34 37 39 40 40 39 34 32 32 28 21 20 22 23 24 24 23 22 21 20 20 20 19 19 18 17 18 19
25 28 31 33 34 35 34 33 32 30 28 28 27 26 27 27 28 30 32 34 36 38 39 40 40 41 42 43 43 44 43 39 35 34 34 38 42 43 42 42 41 38 35 35 31 23 20 22 23 24 25 25 24 23 22 22 21 20 19 18 18 18 19
28 30 31 33 34 34 33 32 30 27 25 22 21 21 21 21 23 25 27 30 32 34 35 37 38 39 40 41 40 40 40 38 37 35 36 42 46 46 43 41 41 39 36 36 33 26 22 23 23 24 25 26 26 25 24 23 22 21 20 19 19 19 20
30 31 32 34 34 33 32 30 26 22 20 17 16 15 14 16 18 20 22 25 28 29 31 33 35 36 37 38 38 38 38 38 37 35 36 41 45 46 43 40 41 40 38 37 35 28 25 25 25 26 27 28 28 27 25 25 23 22 21 20 19 19 20
30 30 31 31 31 31 30 27 23 20 17 15 13 12 13 14 15 17 19 21 23 25 28 30 31 33 34 35 37 37 37 37 36 34 33 38 43 46 44 41 41 42 39 38 37 31 27 26 26 27 27 27 28 28 27 27 25 23 22 21 20 20 21
27 28 29 29 28 29 28 25 22 19 18 16 15 14 13 13 14 15 16 17 20 23 25 26 28 29 31 33 34 35 36 35 34 32 31 35 41 45 44 41 42 41 38 38 38 33 29 27 27 28 27 26 28 29 28 27 26 24 23 23 21 21 22
23 23 25 27 27 26 25 24 22 21 19 16 13 10 9 8 9 11 13 14 17 20 21 23 25 27 29 31 32 34 34 34 34 31 29 31 39 44 44 42 43 41 37 37 38 35 31 29 29 29 27 26 28 28 28 27 26 24 23 23 22 22 24
19 19 22 25 25 24 23 22 20 18 14 11 9 8 7 7 7 7 9 11 14 16 18 20 23 25 27 28 30 32 33 33 33 30 27 30 36 41 42 43 44 42 38 37 38 35 32 31 31 30 28 27 27 27 26 26 24 22 22 21 21 22 24
18 20 21 21 20 18 17 16 16 16 16 16 15 12 10 8 6 5 5 7 9 12 14 17 19 21 23 25 28 30 32 32 31 28 27 29 33 36 40 42 43 42 38 37 38 36 33 32 32 30 28 27 26 25 25 26 24 23 23 22 20 21 24
14 15 14 14 16 19 21 22 23 23 21 18 15 11 9 7 5 4 3 3 5 8 11 13 14 16 18 22 25 28 31 31 29 26 27 29 30 31 35 39 40 39 37 36 37 36 35 34 32 29 27 26 26 25 25 26 25 25 25 23 21 21 23
19 22 24 25 27 29 28 26 25 23 20 16 12 10 8 6 5 4 3 2 3 5 6 7 9 12 15 19 23 27 30 29 27 25 26 27 27 29 33 36 37 37 36 36 36 35 33 30 28 27 27 26 25 24 24 25 24 22 21 20 21 21 22
31 33 34 33 31 30 28 25 22 19 17 14 11 9 7 6 5 5 3 2 1 1 2 4 7 10 14 18 22 26 27 26 25 26 25 24 24 29 33 33 34 35 34 33 32 30 29 27 25 26 25 22 21 21 22 22 20 18 17 18 19 20 21
33 34 32 30 28 26 24 22 19 16 15 12 10 8 7 6 6 5 4 2 1 0 1 4 7 10 14 17 20 23 25 25 25 26 28 25 23 27 30 31 33 35 33 31 29 27 25 24 23 22 19 18 18 19 19 18 16 16 16 16 18 19 20
32 32 31 29 26 23 22 21 18 16 14 11 9 8 7 7 7 6 5 3 2 0 2 5 7 10 13 16 19 21 23 24 24 26 28 25 23 25 26 28 32 35 32 28 24 22 21 19 18 18 17 17 17 16 15 14 14 15 16 16 17 18 18
32 31 30 29 27 24 21 20 18 16 14 11 9 8 6 5 5 5 4 3 1 2 3 5 8 10 13 16 19 21 22 22 23 25 25 22 22 25 26 27 33 36 32 25 19 18 19 18 17 18 17 16 15 14 13 13 14 15 16 17 17 17 16
29 28 27 26 25 23 20 19 18 16 14 11 9 7 5 4 4 4 4 3 3 4 5 7 8 10 12 14 17 19 20 21 22 24 23 20 22 26 27 29 34 36 31 24 19 19 20 21 20 19 17 15 14 12 12 14 15 16 17 18 17 17 16
25 23 22 21 20 19 17 16 14 12 11 9 6 4 4 5 5 5 4 4 4 6 6 7 7 8 9 11 14 15 17 19 20 22 21 20 23 26 26 28 33 34 29 25 23 23 24 25 22 18 15 14 14 13 14 16 17 17 18 19 18 17 16
21 19 17 16 14 12 10 8 6 5 6 6 5 5 6 7 7 7 6 6 6 7 7 6 6 6 7 9 11 13 15 17 18 19 17 18 22 24 24 25 28 30 29 28 27 26 24 21 17 13 12 14 15 16 15 16 17 17 18 19 19 18 16
17 16 15 14 11 10 8 6 5 6 7 8 9 9 9 9 9 9 8 7 7 7 6 6 6 6 7 8 10 12 13 15 17 17 17 18 19 21 21 22 22 23 25 26 24 21 16 13 11 11 13 15 16 16 15 16 17 18 18 18 18 17 16
16 15 14 12 10 8 7 6 7 8 9 10 10 10 9 8 7 8 7 6 6 6 7 8 8 8 9 9 9 10 12 13 15 16 17 18 18 17 18 18 19 20 21 19 16 13 12 11 12 13 14 15 16 16 16 16 17 18 18 17 17 16 16
15 14 12 10 8 7 7 7 8 9 10 9 8 7 6 4 4 4 5 5 5 6 7 9 10 11 11 10 10 11 11 11 13 14 15 15 14 15 16 16 17 16 14 12 11 10 11 13 13 14 15 15 16 17 17 17 17 18 17 16 15 15 15
13 12 10 8 7 7 7 8 8 8 7 6 5 4 3 2 2 2 3 5 6 6 8 10 11 12 13 13 13 12 11 10 10 10 11 11 12 15 16 15 14 12 9 7 8 10 11 12 13 14 15 16 16 16 17 17 17 17 16 15 15 15 15
10 9 8 7 6 5 6 6 6 6 5 4 3 3 2 1 1 2 3 5 6 8 10 12 12 14 17 18 16 14 13 12 10 10 11 13 13 13 12 10 9 9 7 7 8 10 11 12 13 14 14 15 15 15 16 16 16 15 15 15 16 15 15
Wind_Direction
211 213 217 221 225 227 229 231 231 231 232 231 230 230 229 227 227 227 227 227 227 227 227 228 229 231 233 233 233 233 233 234 234 235 236 238 239 241 242 243 243 245 248 252 256 258 259 258 257 259 260 260 257 250 247 248 250 254 259 267 274 275 276
210 210 213 219 223 225 229 230 231 232 232 231 231 230 229 228 228 228 227 228 228 228 228 228 229 231 233 233 232 232 232 233 233 234 235 235 236 237 238 239 238 240 244 247 250 251 251 251 253 256 256 257 255 247 244 245 246 251 257 264 270 273 274
207 209 213 219 222 224 227 228 229 231 231 231 230 230 230 230 230 229 229 228 228 229 229 229 231 232 233 233 232 231 232 232 233 233 233 233 234 235 236 236 235 237 240 242 245 246 247 250 252 253 253 253 251 245 242 243 247 251 257 262 265 267 270
209 212 217 222 223 224 226 226 227 228 230 232 231 231 231 231 231 231 231 231 230 230 229 230 231 232 233 233 231 231 231 232 233 233 234 233 233 235 236 235 234 235 237 239 242 243 245 248 250 250 250 249 245 241 239 241 247 252 254 256 257 258 261
213 214 216 220 222 223 223 224 226 226 228 230 231 232 232 232 232 232 232 233 233 233 232 231 232 233 234 234 232 232 232 232 233 233 234 233 232 234 234 234 234 234 237 238 239 241 243 245 245 246 248 244 238 235 234 239 245 245 244 244 245 246 249
211 213 214 217 219 220 222 223 224 226 227 228 230 231 232 231 231 231 232 233 233 233 233 233 234 235 236 236 234 233 232 232 232 233 234 232 232 232 232 233 233 233 235 236 238 240 241 242 241 242 243 238 233 232 232 234 233 229 232 236 240 244 250
212 213 213 215 217 219 221 222 223 225 227 228 229 230 230 229 230 230 231 232 233 234 234 233 234 236 237 238 236 235 233 232 232 232 233 232 232 231 230 231 231 232 234 235 237 239 239 239 237 237 238 234 230 231 231 228 223 224 233 241 247 254 260
218 216 214 215 217 219 221 222 222 223 224 225 226 227 227 228 229 229 229 231 233 234 235 235 235 235 235 237 237 236 234 234 234 233 233 233 234 233 232 232 231 231 233 235 238 239 238 237 235 233 233 231 230 232 230 226 225 229 238 247 255 262 265
223 220 218 217 218 219 220 221 221 221 223 225 226 227 227 227 229 230 229 230 232 233 235 236 237 236 236 237 238 237 236 236 234 233 233 234 235 235 235 236 234 233 234 236 238 239 238 236 233 231 230 230 231 232 231 229 229 235 244 254 262 267 269
225 222 219 217 217 218 219 220 220 220 222 225 225 226 227 227 228 230 230 230 231 233 235 236 238 239 238 238 239 238 235 232 231 232 235 235 234 232 233 237 237 235 235 236 237 238 237 235 232 230 229 230 231 232 233 232 234 240 251 260 265 269 271
228 221 217 215 216 217 218 220 220 220 221 223 224 225 226 227 228 229 231 232 232 233 235 237 238 240 240 240 238 233 229 229 232 236 236 234 230 228 230 236 238 236 236 236 237 237 237 235 233 231 231 232 232 233 234 234 238 245 253 260 265 268 270
226 220 217 214 214 215 217 219 219 218 219 221 222 224 225 227 229 230 232 233 234 235 236 237 238 240 240 237 230 225 226 230 233 234 233 230 226 225 229 236 240 239 237 236 236 238 238 236 235 233 234 236 236 235 236 237 242 248 254 261 264 266 267
224 220 217 213 212 213 214 216 217 217 218 220 222 224 226 228 229 231 233 234 235 236 237 238 238 238 236 231 229 231 232 230 228 228 228 224 220 220 226 234 240 240 236 232 233 237 239 238 236 235 235 238 239 238 238 241 245 249 255 259 262 264 266
218 217 214 210 211 212 213 215 216 216 217 219 223 225 227 229 231 233 235 236 235 236 237 238 239 238 234 232 235 238 235 230 226 225 223 218 213 214 218 226 235 236 231 227 228 233 238 238 236 235 235 236 238 239 240 244 247 250 255 259 262 266 269
209 209 209 209 211 212 213 215 216 216 218 220 223 225 227 229 231 234 236 237 237 237 238 240 240 239 237 236 237 238 238 235 229 222 219 214 212 211 211 215 223 228 226 223 224 228 233 236 236 235 234 236 238 239 242 246 250 253 257 262 267 272 276
205 207 209 211 212 212 213 216 217 217 219 221 223 225 228 230 233 235 236 237 238 238 238 241 242 240 237 236 237 239 241 238 227 217 212 211 214 215 214 214 217 220 220 218 220 225 230 234 235 232 232 235 238 241 243 248 253 257 260 265 271 276 278
207 209 212 213 213 211 211 213 214 216 218 222 225 227 230 232 234 236 236 238 239 239 240 242 241 239 238 238 240 240 239 233 223 215 211 213 218 220 219 218 216 216 218 217 218 224 230 234 233 230 230 234 237 241 244 249 255 258 261 267 272 276 278
212 213 214 213 211 209 209 210 211 214 217 221 223 225 228 231 233 235 236 238 239 240 242 242 240 239 240 240 240 239 237 231 226 222 217 217 219 220 220 219 215 215 218 218 218 223 231 232 226 224 230 235 238 242 246 250 255 258 262 267 271 276 279
218 216 214 213 210 208 209 209 209 210 210 209 211 217 225 230 234 239 239 240 241 242 242 241 240 241 240 240 241 239 236 234 231 226 221 221 220 218 218 219 215 214 218 217 217 224 231 231 227 225 230 237 241 244 249 252 255 258 263 268 272 277 279
222 217 213 212 211 209 208 207 206 204 199 198 201 210 221 226 232 240 241 243 244 243 243 242 242 242 242 242 242 239 236 235 233 228 227 227 224 218 218 220 216 214 216 216 217 225 232 233 234 234 238 244 246 247 251 255 258 262 267 270 274 277 279
220 215 212 210 208 209 209 204 200 195 191 195 202 210 219 225 232 240 243 245 246 244 245 245 244 245 245 244 242 239 236 234 233 232 233 232 226 220 220 221 218 216 216 215 218 226 233 235 238 242 247 253 252 250 254 260 264 269 272 273 276 277 278
224 219 216 212 206 205 204 199 193 191 193 198 202 206 212 217 225 233 237 242 244 244 246 246 245 246 246 245 244 241 237 235 234 235 236 234 229 224 222 223 221 218 216 215 219 227 235 238 241 246 252 257 255 254 259 265 270 273 275 276 277 277 276
225 220 216 213 206 202 202 200 194 190 184 170 154 150 156 168 186 207 221 232 239 243 247 247 247 248 248 249 247 242 239 239 237 235 236 235 232 230 228 227 224 219 215 216 220 226 235 240 244 250 256 258 256 257 264 270 273 276 280 281 278 274 274
213 212 211 210 204 194 187 178 161 147 137 129 128 128 129 138 151 173 204 226 237 244 249 250 251 253 252 251 249 243 241 240 237 235 236 235 233 234 233 230 224 218 214 216 221 226 235 242 249 256 260 259 258 261 267 271 273 276 281 284 281 275 274
195 190 184 178 164 148 140 136 131 126 123 122 124 122 118 119 121 133 172 213 232 244 251 253 257 258 255 253 249 243 240 241 238 236 236 235 235 236 233 227 220 214 213 217 222 227 235 244 254 261 263 261 260 263 267 271 275 276 276 279 280 277 276
142 138 134 132 130 127 126 127 125 122 120 121 123 124 127 129 124 127 140 171 220 244 254 260 263 260 256 255 247 241 241 242 239 236 235 237 239 237 230 223 218 213 213 218 223 230 240 250 259 264 265 264 263 264 267 271 274 274 272 274 275 276 276
128 127 127 126 126 126 126 126 125 124 125 128 132 135 139 142 141 146 155 167 208 255 262 261 261 255 253 251 245 242 244 244 240 235 233 238 243 236 227 221 216 212 213 218 226 235 245 255 264 268 267 265 262 263 266 267 268 268 268 269 270 271 271
125 124 123 123 125 127 128 127 128 131 136 141 145 145 145 146 148 152 154 149 139 133 255 258 257 255 253 250 247 245 243 243 242 234 228 234 241 232 223 219 215 211 213 220 229 239 247 258 269 272 266 259 257 259 261 263 265 267 267 268 269 270 270
120 119 119 118 119 122 126 128 129 132 137 141 144 143 142 141 141 141 135 121 110 234 277 272 261 256 254 250 248 247 242 242 242 232 225 232 236 223 215 213 209 207 210 218 227 237 249 263 272 267 257 252 254 259 262 266 270 271 272 275 276 276 275
105 107 108 107 105 107 113 118 119 120 123 123 121 122 122 121 131 140 138 132 161 241 265 270 261 254 250 246 245 246 244 243 239 229 226 232 226 213 207 205 203 205 209 217 229 243 257 269 271 260 253 253 257 262 267 269 272 276 280 284 284 284 282
93 95 97 99 100 101 106 110 110 111 112 110 110 116 121 132 153 163 168 182 215 240 252 261 262 257 250 244 242 241 241 241 236 229 229 228 217 211 209 203 201 206 213 223 237 249 262 273 271 259 253 255 259 263 269 273 278 284 288 290 290 290 289
88 88 91 96 99 102 107 108 108 111 113 112 118 135 150 164 174 181 192 209 231 243 243 251 263 263 252 242 239 238 236 235 232 229 228 223 214 213 212 206 205 211 220 230 242 253 263 268 264 256 254 260 266 271 275 280 285 290 291 290 290 291 290
88 89 91 92 95 100 106 108 116 137 147 157 178 190 190 188 187 192 203 217 233 238 235 241 251 250 239 232 231 230 228 227 226 223 220 216 211 210 212 215 217 221 226 234 244 252 256 256 254 253 258 264 269 273 278 283 288 289 290 290 292 293 294
95 96 99 101 106 112 118 130 163 183 189 196 201 199 195 193 195 203 211 218 228 233 229 226 224 219 217 219 219 220 220 219 219 215 209 206 205 202 204 210 216 221 227 235 241 243 242 242 251 259 262 264 268 273 279 283 286 288 290 292 293 294 295
101 103 106 109 115 121 126 142 165 179 190 197 198 196 196 196 201 210 216 217 224 226 218 212 207 198 196 201 205 207 208 207 207 208 205 201 197 193 195 204 213 223 229 230 228 226 230 244 257 260 260 265 270 275 280 283 285 288 289 288 290 291 292
101 105 108 111 118 128 139 153 165 177 187 191 190 188 191 196 207 221 229 229 224 218 210 207 202 191 183 182 183 186 194 203 208 211 209 203 198 197 201 206 212 217 218 216 217 228 244 254 256 256 260 267 273 277 280 282 284 285 284 285 288 291 292
100 104 106 109 119 131 142 155 163 169 174 175 173 173 174 178 204 235 249 241 226 216 209 203 196 185 177 175 176 182 193 206 213 209 199 194 196 198 197 194 193 195 201 217 236 246 248 248 250 256 265 272 276 278 280 281 282 282 283 287 293 296 298
104 106 106 108 117 128 139 150 154 154 156 161 165 163 153 148 191 245 255 247 236 222 208 196 188 186 184 180 179 180 178 175 177 179 180 183 187 188 189 196 207 214 222 238 246 244 242 246 254 262 268 272 274 276 279 281 281 284 288 294 299 302 301